AirNav   TITAN Aviation Fuels
 
 1127 users online  

0IN6 Morrison Flight Park
Linton, Indiana, USA

GOING TO LINTON?


FAA INFORMATION EFFECTIVE 22 APRIL 2021

Location

FAA Identifier: 0IN6
Lat/Long: 39-01-18.2000N 087-11-13.4000W
39-01.303333N 087-11.223333W
39.0217222,-87.1870556
(estimated)
Elevation: 520 ft. / 158 m (estimated)
Variation: 02W (1995)
From city: 2 miles SW of LINTON, IN
Time zone: UTC -4 (UTC -5 during Standard Time)
Zip code: 47441

Ultralight Flight Park Operations

Ultralight Flight Park use: Private use. Permission required prior to landing
Activation date: 05/1999
Control tower: no
ARTCC: INDIANAPOLIS CENTER
FSS: TERRE HAUTE FLIGHT SERVICE STATION
Attendance: UNATNDD
Wind indicator: yes
Segmented circle: no

Ultralight Flight Park Communications

WX AWOS-3PT at DCY (19 nm S): 124.1 (812-257-8889)

Nearby radio navigation aids

VOR radial/distance  VOR name  Freq  Var
OOMr257/27.7HOOSIER VORTAC110.2002W
TTHr172/28.2TERRE HAUTE VORTAC115.3002E

 
NDB name  Hdg/Dist  Freq  Var  ID
PALESTINE092/21.239103WPLX .--. .-.. -..-

Ultralight Flight Park Services

Runway Information

Runway 18U/36U

Dimensions: 1225 x 70 ft. / 373 x 21 m
Surface: turf, in good condition
RUNWAY 18U  RUNWAY 36U
Latitude: 39-01.404000N39-01.202167N
Longitude: 087-11.227333W087-11.220500W
Traffic pattern: leftleft
Displaced threshold: no225 ft.
RY 36 DSPLCD THLD MKD WITH 2 YELLOW TIRES ON EACH SIDE OF RY.
Obstructions: none15 ft. road, 10 ft. from runway
RWY 36U APP SLOPE TO DSPLCD T-HOLD 15:1.

Ultralight Flight Park Ownership and Management from official FAA records

Ownership: Privately-owned
Owner: LESTER W. MORRISON
13062 W 25 S
LINTON, IN 04741
Phone 812-847-2321
Manager: LESTER W. MORRISON
13062 W 25 S
LINTON, IN 47441
Phone 812-847-2321

Ultralight Flight Park Operational Statistics

Aircraft based on the field: 2
Ultralights: 2
    
Aircraft operations: avg 35/month *
90% local general aviation
10% transient general aviation
* for 12-month period ending 31 December 2003

Additional Remarks

400 FT TOWER 900 FT NW OF RY 36 & 390 FT TOWER 1/2 MILE ENE OF RY 36.
FOR CD CTC HULMAN APCH AT 812-877-7581.

Instrument Procedures

There are no published instrument procedures at 0IN6.

Some nearby airports with instrument procedures:

KSIV - Sullivan County Airport (13 nm NW)
KDCY - Daviess County Airport (19 nm S)
KRSV - Crawford County Airport (22 nm W)
KLWV - Lawrenceville-Vincennes International Airport (25 nm SW)
KHUF - Terre Haute Regional Airport (26 nm N)
 
Loc | Ops | Rwys | IFR | FBO | Links
Com | Nav | Svcs | Stats | Notes
Area around 0IN6 (Morrison Flight Park)
 
Road maps at: MapQuest Bing Google
 
Aerial photo
WARNING: Photo may not be current or correct
Aerial photo of 0IN6 (Morrison Flight Park)
Do you have a better or more recent aerial photo of Morrison Flight Park that you would like to share? If so, please send us your photo.

 
Sectional chart

 
Airport distance calculator
Flying to Morrison Flight Park? Find the distance to fly.

From to 0IN6

Sunrise and sunset
Times for 12-May-2021
 Local
(UTC-4)
 Zulu
(UTC)
Morning civil twilight06:1010:10
Sunrise06:4010:40
Sunset20:5100:51
Evening civil twilight21:2001:20

Current date and time
Zulu (UTC)  13-May-2021 00:53:58
Local (UTC-4)  12-May-2021 20:53:58
 
METAR
KDCY 
19nm S 
130035Z AUTO 03005KT 10SM CLR 15/00 A3032 RMK AO2 T01510000
KRSV 
22nm W 
130035Z AUTO 03007KT 10SM CLR 13/00 A3035 RMK AO2 T01320002
KLWV 
25nm SW 
122353Z AUTO 05006KT 10SM CLR 17/M01 A3032 RMK AO2 SLP269 T01721011 10189 20167 56006
KHUF 
27nm N 
122353Z 03008KT 10SM CLR 15/00 A3035 RMK AO2 SLP277 T01500000 10172 20150 55005
KBMG 
28nm E 
122353Z 02008KT 10SM CLR 15/M01 A3032 RMK AO2 SLP268 T01501006 10178 20144 55005
KAJG 
35nm SW 
130035Z AUTO 05005KT 10SM CLR 15/00 A3033 RMK AO2 T01521004
TAF
KHUF 
27nm N 
121724Z 1218/1318 05011KT P6SM FEW050 FM130100 03006KT P6SM FEW250
KBMG 
28nm E 
121724Z 1218/1318 05011KT P6SM FEW050 FM130100 03006KT P6SM FEW250
NOTAMs
Click for the latest NOTAMs
NOTAMs are issued by the DoD/FAA and will open in a separate window not controlled by AirNav.

 

 
 

Would you like to see your business listed on this page?

 If your business provides an interesting product or service to pilots, flight crews, aircraft, or users of the Morrison Flight Park, you should consider listing it here.  To start the listing process, click on the button below
 
Add a business
 

Other Pages about Morrison Flight Park

flightpark4u8.homestead.com
 
Update a link
 
Copyright © AirNav, LLC. All rights reserved. Privacy Policy  Contact